[[{"header":{"parameterUnit":"m.s-1","parameterCategory":1,"la1":30.2991,"la2":30.254,"lo1":-89.0895,"lo2":-89.0444,"dy":0.0017,"dx":0.0017,"nx":28,"ny":28,"refTime":"2025-06-15T21:00:00:Z","depth":0,"parameterNumber":2,"parameterNumberName":"U-component_of_WINDS"},"data":[0,0,0,0,0,0,0,0,0,0,0,0,0,0,0,0,0,0,0,0,0,0,0,0,0,0,0,0,0,0,0,0,0,0,0,0,0,0,0,0,0,0,0,0,0,0,0,0,0,0,0,0,0,0,0,0,0,0,3.2599,3.2599,0,3.2607,3.2607,3.2607,3.2531,3.2529,3.2526,3.2524,3.2533,3.2535,3.2537,0,0,0,0,0,0,0,0,0,0,0,0,0,3.2513,3.2515,3.2598,3.2599,3.2599,3.2607,3.2607,3.2607,3.2531,3.2528,3.2526,3.2523,3.2532,3.2535,3.2537,0,0,0,0,0,0,0,0,0,0,0,0,0,3.2539,3.2515,3.2598,3.2562,3.2558,3.2607,3.2607,3.2607,3.2532,3.2528,3.2525,3.2522,3.2531,3.2534,3.2538,3.2622,0,0,3.2548,3.2549,0,0,0,0,0,0,0,0,3.2537,3.2542,3.2567,3.2564,3.2561,3.2565,3.258,3.2612,3.2532,3.2542,3.2524,3.2521,3.2546,3.2548,3.2556,3.2622,3.2623,3.2548,3.255,3.2551,3.2552,0,0,0,0,0,0,0,3.2535,3.2541,3.2602,3.2567,3.2564,3.2544,3.2544,3.2586,3.2562,3.2541,3.2535,3.2537,3.2543,3.2553,3.2556,3.2623,3.2548,3.2551,3.2553,3.2554,3.2754,3.2757,0,0,0,0,0,0,3.2539,3.254,3.2602,3.2602,3.2541,3.2548,3.2548,3.2567,3.2561,3.2557,3.254,3.2534,3.2549,3.2552,3.2556,3.2651,3.2551,3.2554,3.2556,3.2751,3.2755,3.2759,0,0,0,0,0,0,3.2537,3.2545,3.2601,3.257,3.2575,3.2553,3.2574,3.2568,3.2578,3.256,3.2555,3.2555,3.2547,3.2551,3.2605,3.2651,3.2556,3.2559,3.2747,3.2752,3.2757,3.2845,0,0,0,0,0,0,3.2535,3.2545,3.2578,3.2571,3.2577,3.2652,3.2577,3.2571,3.2584,3.2576,3.2573,3.2569,3.2545,3.2601,3.2609,3.2653,3.2562,3.2743,3.2749,3.2755,3.2838,3.2852,3.2865,0,0,0,0,0,3.2532,3.2603,3.258,3.2588,3.2618,3.2654,3.2658,3.2628,3.2588,3.262,3.2608,3.2569,3.2645,3.2607,3.2615,3.2662,3.274,3.2747,3.2755,3.2832,3.2849,3.2864,0,0,0,0,0,0,3.2617,3.2602,3.2576,3.2646,3.2652,3.2641,3.2681,3.2649,3.2666,3.2657,3.262,3.262,3.2679,3.2676,3.2634,3.2741,3.2685,3.2695,3.2741,3.2757,3.2771,3.2769,3.2564,0,0,0,0,0,3.2643,3.2675,3.266,3.2724,3.2728,3.2704,3.2719,3.2695,3.27,3.2702,3.2694,3.2699,3.2723,3.2741,3.2763,3.2837,3.2834,3.2873,3.2887,3.2898,3.2906,3.2942,3.2958,3.2783,3.2783,3.2783,0,0,3.2699,3.2695,3.2717,3.274,3.2742,3.2774,3.2707,3.2744,3.2767,3.2707,3.2757,3.2752,3.2755,3.2819,3.2846,3.2818,3.2953,3.2907,3.2916,3.2918,3.2951,3.2968,3.2982,3.2788,3.2787,3.2787,0,0,3.2816,3.2817,3.2868,3.2871,3.2874,3.2857,3.287,3.2863,3.2857,3.2906,3.2861,3.2887,3.2931,3.2934,3.2942,3.3057,3.3021,3.3066,3.3135,3.317,3.3184,3.3196,3.3234,3.3249,3.3074,3.3074,3.3074,0,3.2884,3.2931,3.2899,3.2938,3.2948,3.2896,3.2946,3.295,3.296,3.2968,3.2936,3.2988,3.2987,3.3049,3.3076,3.3086,3.3096,3.3065,3.3185,3.3197,3.3207,3.3243,3.3258,3.3079,3.3079,3.3078,3.3078,0,3.3014,3.3047,3.3088,3.3097,3.3112,3.3158,3.313,3.3149,3.3124,3.3111,3.316,3.3156,3.3175,3.3188,3.3165,3.3246,3.3228,3.3192,3.3134,3.323,3.3263,3.3276,3.3087,3.3085,3.3083,3.3082,0,0,3.3184,3.3174,3.3189,3.3191,3.3189,3.3214,3.3255,3.3273,3.3288,3.3297,3.3329,3.3367,3.3332,3.334,3.3317,3.3348,3.3436,3.3307,3.3306,3.3328,3.3522,3.3547,3.3564,3.3413,3.3415,3.3417,3.352,0,3.3296,3.3366,3.3336,3.3408,3.3436,3.3386,3.3421,3.3423,3.3411,3.3433,3.342,3.3445,3.3399,3.3403,3.3432,3.3419,3.3474,3.3411,3.344,3.3442,3.3438,3.3582,3.361,3.3707,3.3534,3.3536,3.3537,0,3.3435,3.3447,3.3522,3.3512,3.3523,3.3556,3.3567,3.359,3.359,3.3579,3.3587,3.3556,3.3594,3.3538,3.359,3.3548,3.3558,3.3553,3.3556,3.3556,3.3494,3.3583,3.3738,3.3752,3.3558,3.3556,3.3555,0,3.3548,3.3584,3.3632,3.3636,3.3626,3.365,3.3647,3.3644,3.3655,3.3666,3.3673,3.3689,3.3697,3.3709,3.3682,3.3644,3.3736,3.3679,3.3726,3.3726,3.3746,3.3744,3.3902,3.3757,3.3757,3.3757,3.3756,0,3.3674,3.3721,3.3681,3.3711,3.3761,3.3727,3.3777,3.3769,3.3766,3.3792,3.375,3.3775,3.3739,3.3761,3.374,3.3784,3.3788,3.3779,3.3772,3.3781,3.3782,3.3786,3.3777,3.376,3.376,3.3759,3.3758,0,3.3808,3.3784,3.3832,3.3818,3.3816,3.3853,3.3841,3.3867,3.3851,3.3884,3.389,3.3866,3.3888,3.3863,3.3885,3.387,3.3928,3.3914,3.3928,3.3923,3.397,3.3965,3.4134,3.4153,3.3998,3.4,3.4001,0,3.3888,3.3923,3.3912,3.3925,3.3924,3.3948,3.3959,3.3926,3.3938,3.394,3.3965,3.3984,3.3997,3.4036,3.402,3.4035,3.4018,3.4077,3.402,3.4027,3.4016,3.4013,3.4015,3.4087,3.4089,3.4091,3.4092,0,3.4033,3.4018,3.4035,3.4047,3.4061,3.4069,3.4074,3.4088,3.4053,3.407,3.4092,3.4102,3.4122,3.4141,3.4151,3.4148,3.4113,3.411,3.4121,3.4129,3.4135,3.4129,3.3956,3.4106,3.4104,3.4103,3.4102,3.4102,3.414,3.4167,3.4162,3.4181,3.4181,3.4186,3.4209,3.4195,3.4213,3.4226,3.4206,3.4233,3.423,3.424,3.424,3.426,3.4235,3.4252,3.4256,3.426,3.4266,3.4134,3.4263,3.4262,3.4262,3.4261,3.4261,0,3.4279,3.4273,3.4291,3.4298,3.4313,3.428,3.4283,3.4297,3.4321,3.4321,3.4334,3.4358,3.4376,3.4361,3.4374,3.4393,3.4378,3.4398,3.4394,3.4394,3.4289,3.4276,3.441,3.441,3.441,3.441,3.441,3.441,3.4353,3.4395,3.438,3.4421,3.4415,3.4439,3.4444,3.4447,3.4447,3.4475,3.4489,3.4479,3.4472,3.4485,3.4499,3.4494,3.45,3.4525,3.4514,3.4416,3.4401,3.4387,3.4375,3.4527,3.4527,3.4617,3.4617,3.4618]},{"header":{"parameterUnit":"m.s-1","parameterCategory":1,"la1":30.2991,"la2":30.254,"lo1":-89.0895,"lo2":-89.0444,"dy":0.0017,"dx":0.0017,"nx":28,"ny":28,"refTime":"2025-06-15T21:00:00:Z","depth":0,"parameterNumber":3,"parameterNumberName":"V-component_of_WINDS"},"data":[0,0,0,0,0,0,0,0,0,0,0,0,0,0,0,0,0,0,0,0,0,0,0,0,0,0,0,0,0,0,0,0,0,0,0,0,0,0,0,0,0,0,0,0,0,0,0,0,0,0,0,0,0,0,0,0,0,0,4.5405,4.5408,0,4.5705,4.5708,4.5712,4.5913,4.5915,4.5916,4.5917,4.6211,4.6217,4.6223,0,0,0,0,0,0,0,0,0,0,0,0,0,4.4996,4.5002,4.5404,4.5408,4.5412,4.5704,4.5709,4.5713,4.5913,4.5915,4.5916,4.5918,4.6209,4.6216,4.6224,0,0,0,0,0,0,0,0,0,0,0,0,0,4.5221,4.5004,4.5404,4.5548,4.5564,4.5704,4.5709,4.5714,4.5913,4.5915,4.5917,4.5919,4.6206,4.6215,4.6225,4.6241,0,0,4.6255,4.6259,0,0,0,0,0,0,0,0,4.5208,4.5236,4.5523,4.5538,4.5556,4.5774,4.5672,4.589,4.5912,4.578,4.5917,4.592,4.6063,4.6084,4.6135,4.6255,4.6268,4.6255,4.6261,4.6265,4.6268,0,0,0,0,0,0,0,4.5193,4.5224,4.5523,4.5527,4.5547,4.5594,4.5629,4.5714,4.5905,4.5791,4.5807,4.584,4.6072,4.6126,4.6144,4.6272,4.6255,4.6264,4.627,4.6274,4.6424,4.6423,0,0,0,0,0,0,4.5156,4.521,4.5514,4.5532,4.5385,4.56,4.5638,4.5702,4.5905,4.5938,4.5838,4.5849,4.6108,4.6132,4.6155,4.6191,4.6265,4.6274,4.628,4.6426,4.6424,4.6422,0,0,0,0,0,0,4.5146,4.5181,4.5501,4.5376,4.542,4.5605,4.5674,4.5706,4.5761,4.594,4.5974,4.5858,4.6111,4.6141,4.6221,4.6204,4.6279,4.6288,4.6428,4.6426,4.6423,4.626,0,0,0,0,0,0,4.5134,4.5176,4.5186,4.5375,4.5426,4.5564,4.5673,4.5711,4.5778,4.5795,4.5968,4.5999,4.6115,4.6205,4.623,4.6218,4.6295,4.6431,4.6427,4.6424,4.6267,4.6252,4.6238,0,0,0,0,0,4.5118,4.5124,4.5186,4.5221,4.5443,4.5563,4.5592,4.5729,4.5776,4.5787,4.5903,4.5993,4.6201,4.6211,4.6241,4.6232,4.6432,4.6428,4.6424,4.6274,4.6255,4.6239,0,0,0,0,0,0,4.4923,4.5151,4.5222,4.529,4.5406,4.5597,4.5614,4.5704,4.5806,4.5816,4.5978,4.6016,4.6079,4.6163,4.617,4.6261,4.6328,4.6329,4.6203,4.6187,4.6172,4.615,4.6303,0,0,0,0,0,4.4889,4.4971,4.5165,4.5205,4.5261,4.5427,4.5484,4.5581,4.5706,4.5755,4.5877,4.5991,4.6083,4.6139,4.6233,4.6281,4.6322,4.629,4.6275,4.6262,4.6261,4.6296,4.6284,4.6409,4.6409,4.6409,0,0,4.4817,4.4952,4.4993,4.517,4.5272,4.5351,4.5467,4.5544,4.5604,4.5765,4.585,4.5943,4.6081,4.6146,4.618,4.6218,4.6237,4.6257,4.6245,4.6252,4.629,4.6278,4.6268,4.6406,4.6407,4.6407,0,0,4.4728,4.4838,4.4887,4.4988,4.5143,4.5254,4.5265,4.5444,4.5514,4.5603,4.5727,4.5798,4.5951,4.6047,4.6115,4.6067,4.6154,4.6092,4.6016,4.6047,4.6038,4.603,4.6014,4.6007,4.6091,4.6091,4.609,0,4.4618,4.4746,4.4898,4.4972,4.5046,4.5202,4.5251,4.534,4.5515,4.5561,4.5603,4.5804,4.5907,4.5998,4.5987,4.6036,4.6054,4.6073,4.6028,4.6021,4.6016,4.6003,4.5996,4.6082,4.6083,4.6084,4.6085,0,4.4604,4.4691,4.4711,4.4883,4.496,4.5019,4.5179,4.5238,4.5329,4.5435,4.5523,4.5655,4.578,4.5809,4.5894,4.5912,4.5932,4.5998,4.6068,4.5993,4.5984,4.598,4.607,4.6073,4.6076,4.6078,0,0,4.4396,4.4658,4.4662,4.4744,4.4929,4.4997,4.5064,4.5193,4.5241,4.5356,4.5416,4.5546,4.5611,4.5688,4.5787,4.5814,4.5771,4.5879,4.5884,4.5855,4.58,4.575,4.5741,4.583,4.583,4.583,4.5789,0,4.4336,4.4471,4.4612,4.4695,4.4778,4.4929,4.4988,4.5106,4.5208,4.5291,4.5401,4.5492,4.5569,4.5618,4.5652,4.5768,4.5762,4.5773,4.5886,4.5888,4.5848,4.5736,4.5683,4.5638,4.5786,4.5786,4.5785,0,4.4282,4.4399,4.4491,4.4673,4.4713,4.4764,4.4895,4.4973,4.511,4.5182,4.5271,4.5378,4.5455,4.5517,4.5625,4.563,4.5685,4.5749,4.5751,4.5766,4.5832,4.575,4.5627,4.562,4.5781,4.5781,4.5781,0,4.4124,4.4303,4.4384,4.4448,4.4661,4.4694,4.4783,4.4923,4.4993,4.5106,4.5153,4.527,4.5334,4.5422,4.5558,4.5591,4.5652,4.5725,4.5713,4.5709,4.5718,4.5716,4.5603,4.5751,4.5751,4.5751,4.5752,0,4.4042,4.4093,4.4316,4.4365,4.4428,4.4589,4.4645,4.4747,4.4871,4.4941,4.5077,4.5139,4.5315,4.5397,4.5503,4.5577,4.5604,4.5663,4.5691,4.5652,4.5645,4.569,4.5697,4.575,4.575,4.5751,4.5751,0,4.3875,4.4026,4.4125,4.4321,4.4371,4.4409,4.4575,4.4628,4.4739,4.4827,4.4856,4.5029,4.5134,4.5279,4.5425,4.5497,4.5557,4.56,4.5512,4.5529,4.551,4.551,4.5422,4.5419,4.5567,4.5565,4.5564,0,4.3813,4.3857,4.406,4.412,4.4207,4.43,4.4374,4.4535,4.4605,4.4768,4.48,4.4917,4.5019,4.5178,4.5314,4.5428,4.5476,4.5438,4.5493,4.5454,4.5477,4.5474,4.548,4.5423,4.5421,4.5419,4.5417,0,4.3687,4.3761,4.3865,4.3996,4.4082,4.4191,4.4306,4.4346,4.4531,4.4603,4.4715,4.4794,4.4949,4.5062,4.5196,4.5284,4.5381,4.5399,4.5403,4.5364,4.5312,4.5342,4.5476,4.54,4.5402,4.5403,4.5404,4.5405,4.3572,4.362,4.3773,4.3884,4.399,4.4095,4.4156,4.4278,4.4376,4.4518,4.4606,4.4714,4.4853,4.5043,4.5128,4.5213,4.5252,4.5256,4.5257,4.5256,4.5244,4.5298,4.5237,4.5238,4.5239,4.5239,4.524,0,4.3455,4.3562,4.3664,4.3825,4.3912,4.4002,4.4135,4.4202,4.4298,4.4421,4.4521,4.465,4.4763,4.491,4.5032,4.5072,4.512,4.5099,4.5098,4.5117,4.5201,4.5187,4.5059,4.5059,4.5059,4.5059,4.5059,4.5059,4.3405,4.3492,4.3585,4.3726,4.3832,4.3944,4.4013,4.4111,4.4211,4.4352,4.4448,4.4546,4.468,4.4814,4.492,4.4961,4.4999,4.4965,4.5018,4.5094,4.511,4.5126,4.5114,4.4972,4.4972,4.4928,4.4927,4.4927]}]]